RH
94 96 98 98 98 98 98 97 96 91 89 88 81 70 61 59 64 61 59 58 59 60 60 59 59 60 60
96 98 98 99 97 98 98 97 97 91 87 81 77 72 67 63 66 64 61 58 59 59 57 59 61 61 61
98 94 97 98 98 96 97 97 94 91 83 79 74 71 67 63 65 64 56 55 54 53 57 60 62 63 64
92 94 94 95 96 97 95 85 85 76 74 71 67 62 60 62 59 59 53 52 54 57 60 63 63 64 65
97 97 96 98 97 94 93 90 89 81 78 75 72 56 58 63 58 54 52 55 56 60 62 62 64 63 64
96 94 95 94 92 91 90 93 97 84 76 71 63 57 53 50 54 55 55 58 58 60 62 63 63 64 64
94 90 92 89 89 94 91 91 92 90 83 76 62 54 48 47 58 55 59 58 58 60 62 64 64 64 64
86 90 92 86 84 84 89 89 80 70 65 76 62 47 48 46 61 62 60 58 58 61 62 62 62 65 68
87 88 86 86 84 82 87 85 79 68 64 56 56 48 49 46 52 64 61 58 60 63 60 62 63 69 63
96 92 88 87 83 84 83 86 81 80 66 65 58 58 58 48 50 53 50 58 63 62 62 61 67 60 59
86 83 78 77 74 70 66 67 76 79 62 68 78 75 77 67 54 52 52 51 52 52 58 63 69 68 64
76 74 79 80 71 68 66 65 62 67 61 62 90 78 84 80 66 56 53 54 57 53 52 61 66 67 71
80 82 80 77 75 80 76 72 70 65 63 69 82 84 87 85 79 69 70 54 56 57 60 59 60 60 64
80 78 76 79 78 75 82 77 82 81 72 68 72 82 88 81 84 81 70 85 60 60 62 63 58 54 56
78 78 75 77 80 77 81 82 85 83 82 78 73 79 81 87 87 75 74 72 64 69 73 74 60 54 53
83 84 88 87 87 86 83 85 90 87 88 86 85 81 79 77 78 79 75 74 68 71 73 83 72 54 52
90 92 92 90 92 88 87 88 90 89 92 91 92 90 85 83 73 66 83 78 77 75 70 73 81 70 61
Wind_Speed
1 1 2 5 5 4 8 7 8 17 16 14 10 9 8 7 8 6 4 1 3 5 7 9 10 11 12
3 2 2 4 3 7 5 5 6 14 15 13 10 8 6 6 9 5 3 3 4 5 7 9 10 11 13
4 2 2 2 4 5 5 5 4 13 14 13 11 8 8 8 7 6 4 2 3 5 7 9 10 12 14
5 4 2 3 3 4 4 3 3 5 7 7 7 7 6 6 5 6 3 2 4 5 6 9 10 13 15
3 4 4 5 7 4 4 6 3 2 3 2 2 2 1 5 5 4 2 4 4 4 7 9 12 14 15
4 6 6 6 6 9 8 5 4 1 3 3 1 2 3 2 3 3 4 4 2 4 8 11 13 15 14
11 7 8 9 10 8 8 5 4 4 3 3 1 2 2 3 2 4 5 3 1 6 9 12 13 14 17
7 8 6 11 11 7 10 9 7 4 1 3 2 3 2 1 3 7 5 3 4 7 9 10 14 18 17
16 16 19 20 16 11 8 9 4 2 1 2 3 2 1 1 2 8 2 2 8 9 9 11 18 18 11
12 16 15 15 15 5 10 8 5 3 3 3 3 1 3 1 1 2 2 4 9 8 8 15 15 9 9
11 9 9 9 7 7 7 6 5 4 5 3 3 2 2 1 0 1 2 3 4 4 9 14 14 12 9
10 8 8 8 9 9 11 10 9 10 7 4 4 2 2 1 0 1 2 3 2 4 8 12 13 12 11
10 8 7 9 12 11 12 15 13 11 8 6 5 4 2 1 0 1 4 2 3 7 7 8 9 7 8
10 10 8 8 8 7 8 8 8 7 7 6 4 3 2 1 1 1 1 3 6 7 7 8 7 6 7
10 9 9 9 8 7 5 4 5 4 2 3 4 2 2 3 1 1 3 4 6 8 8 9 7 6 7
9 8 8 8 8 6 6 7 7 5 4 3 4 2 2 1 4 2 3 5 6 7 8 7 8 6 8
8 8 8 7 9 7 7 7 7 5 4 3 4 2 2 3 1 3 4 5 6 6 5 5 8 11 10
Wind_Direction
114 127 125 147 140 133 139 131 135 139 137 133 140 158 180 190 184 188 206 255 287 281 285 292 298 301 303
143 139 103 142 131 131 111 100 125 148 146 147 153 158 180 211 195 199 219 235 254 269 287 294 301 303 304
138 115 123 142 95 73 99 86 91 143 148 156 155 168 194 211 185 198 217 183 245 272 290 299 308 310 309
137 126 121 112 119 128 107 85 98 93 97 114 140 156 173 171 171 131 140 232 268 281 300 304 308 307 308
134 112 148 154 177 143 118 120 74 93 103 86 113 146 107 126 136 141 203 256 259 294 297 305 308 309 310
151 170 171 161 139 154 143 140 163 238 131 154 169 164 166 167 172 201 242 226 266 291 308 311 311 309 308
168 177 161 167 145 146 152 133 110 137 130 147 147 182 170 170 195 245 209 159 325 323 316 315 313 314 312
159 147 130 145 152 143 134 104 88 88 80 134 169 170 161 193 259 203 159 140 346 327 322 317 322 319 313
113 124 133 136 128 122 132 130 114 126 129 137 149 139 119 161 178 166 123 304 329 329 320 319 325 318 314
102 104 111 125 133 122 149 134 122 132 166 137 130 123 152 125 174 220 259 271 339 321 320 326 326 321 315
98 91 84 83 85 85 85 117 122 93 143 114 135 141 74 102 323 252 260 301 317 314 316 324 326 315 301
104 98 98 93 89 85 83 79 71 99 119 122 110 131 121 119 138 328 279 315 305 319 331 318 311 302 288
107 97 94 105 103 95 88 89 83 81 74 75 102 122 112 127 167 332 329 322 333 331 321 312 309 305 304
111 109 110 109 104 110 107 106 93 81 65 73 81 117 139 188 182 271 292 325 326 325 318 305 302 297 301
116 118 116 114 107 111 108 97 98 110 84 31 31 114 154 154 173 214 328 316 322 323 324 319 307 303 306
113 117 117 118 117 102 97 100 106 97 88 27 17 110 121 169 232 331 324 317 322 327 322 314 304 320 324
112 113 114 116 115 113 108 109 105 100 72 46 32 54 85 49 15 280 328 325 326 319 314 298 293 305 321